Location: Northam
(31.6525°S, 116.6655°E)
Time: 04:49:12
(UTC+08:00)

ISS - Visible Passes

Search period start: 22 August 2019 00:00
Search period end: 01 September 2019 00:00
Orbit: 410 x 421 km, 51.6° (Epoch: 22 August)

Date Brightness Start Highest point End Pass type
(mag) Time Alt. Az. Time Alt. Az. Time Alt. Az.
22 Aug -2.8 18:38:45 10° WNW 18:42:01 46° SW 18:45:18 10° SSE visible
23 Aug -0.8 19:29:30 10° SW 19:30:24 11° SSW 19:31:19 10° SSW visible
24 Aug -1.2 18:39:08 10° WSW 18:41:26 17° SW 18:43:45 10° S visible
